Year,Month,Day,Hour,Minute,Value (Times are PST for temperature in C)
2015,11,22,00,00,0.00
2015,11,22,00,01,0.00
2015,11,22,00,02,0.00
2015,11,22,00,03,0.00
2015,11,22,00,04,0.00
2015,11,22,00,05,0.00
2015,11,22,00,06,0.00
2015,11,22,00,07,0.00
2015,11,22,00,08,-0.10
2015,11,22,00,09,-0.10
2015,11,22,00,10,-0.10
2015,11,22,00,11,-0.10
2015,11,22,00,12,-0.10
2015,11,22,00,13,-0.10
2015,11,22,00,14,-0.10
2015,11,22,00,15,-0.10
2015,11,22,00,16,-0.10
2015,11,22,00,17,-0.10
2015,11,22,00,18,-0.10
2015,11,22,00,19,-0.10
2015,11,22,00,20,-0.10
2015,11,22,00,21,-0.10
2015,11,22,03,11,0.00
2015,11,22,03,12,0.10
2015,11,22,03,13,0.20
2015,11,22,03,14,0.30
2015,11,22,03,15,0.40
2015,11,22,03,16,0.50
2015,11,22,03,17,0.70
2015,11,22,03,18,0.80
2015,11,22,03,19,0.80
2015,11,22,03,20,0.90
2015,11,22,03,21,0.90
2015,11,22,03,22,0.90
2015,11,22,03,23,1.00
2015,11,22,03,24,1.10
2015,11,22,03,25,1.10
2015,11,22,03,26,1.20
2015,11,22,03,27,1.30
2015,11,22,03,28,1.40
2015,11,22,03,29,1.40
2015,11,22,03,30,1.50
2015,11,22,03,31,1.60
2015,11,22,03,32,1.60
2015,11,22,03,33,1.60
2015,11,22,03,34,1.60
2015,11,22,03,35,1.60
2015,11,22,03,36,1.60
2015,11,22,03,37,1.60
2015,11,22,03,38,1.60
2015,11,22,03,39,1.60
2015,11,22,03,40,1.60
2015,11,22,03,41,1.50
2015,11,22,03,42,1.50
2015,11,22,03,43,1.50
2015,11,22,03,44,1.50
2015,11,22,03,45,1.50
2015,11,22,03,46,1.50
2015,11,22,03,47,1.50
2015,11,22,03,48,1.50
2015,11,22,03,49,1.50
2015,11,22,03,50,1.40
2015,11,22,03,51,1.40
2015,11,22,03,52,1.40
2015,11,22,03,53,1.40
2015,11,22,03,54,1.40
2015,11,22,03,55,1.40
2015,11,22,03,56,1.40
2015,11,22,03,57,1.50
2015,11,22,03,58,1.60
2015,11,22,03,59,1.60
2015,11,22,04,00,1.60
2015,11,22,04,01,1.70
2015,11,22,04,02,1.70
2015,11,22,04,03,1.70
2015,11,22,04,04,1.70
2015,11,22,04,05,1.70
2015,11,22,04,06,1.70
2015,11,22,04,07,1.70
2015,11,22,04,08,1.70
2015,11,22,04,09,1.70
2015,11,22,04,10,1.70
2015,11,22,04,11,1.70
2015,11,22,04,12,1.70
2015,11,22,04,13,1.80
2015,11,22,04,14,1.80
2015,11,22,04,15,1.80
2015,11,22,04,16,1.80
2015,11,22,04,17,1.80
2015,11,22,04,18,1.90
2015,11,22,04,19,1.90
2015,11,22,04,20,1.90
2015,11,22,04,21,1.90
2015,11,22,04,22,1.90
2015,11,22,04,23,1.90
2015,11,22,04,24,1.80
2015,11,22,04,25,1.80
2015,11,22,04,26,1.70
2015,11,22,04,27,1.70
2015,11,22,04,28,1.70
2015,11,22,04,29,1.70
2015,11,22,04,30,1.70
2015,11,22,04,31,1.80
2015,11,22,04,32,1.80
2015,11,22,04,33,1.80
2015,11,22,04,34,1.90
2015,11,22,04,35,1.90
2015,11,22,04,36,1.90
2015,11,22,04,37,1.90
2015,11,22,04,38,1.90
2015,11,22,04,39,2.00
2015,11,22,04,40,2.00
2015,11,22,04,41,2.10
2015,11,22,04,42,2.10
2015,11,22,04,43,2.10
2015,11,22,04,44,2.10
2015,11,22,04,45,2.00
2015,11,22,04,46,2.00
2015,11,22,04,47,2.00
2015,11,22,04,48,1.90
2015,11,22,04,49,1.80
2015,11,22,04,50,1.60
2015,11,22,04,51,1.40
2015,11,22,04,52,1.30
2015,11,22,04,53,1.10
2015,11,22,04,54,1.00
2015,11,22,04,55,0.90
2015,11,22,04,56,0.80
2015,11,22,04,57,0.60
2015,11,22,04,58,0.60
2015,11,22,04,59,0.50
2015,11,22,05,00,0.40
2015,11,22,05,01,0.40
2015,11,22,05,02,0.40
2015,11,22,05,03,0.40
2015,11,22,05,04,0.40
2015,11,22,05,05,0.40
2015,11,22,05,06,0.40
2015,11,22,05,07,0.50
2015,11,22,05,08,0.50
2015,11,22,05,09,0.50
2015,11,22,05,10,0.50
2015,11,22,05,11,0.60
2015,11,22,05,12,0.60
2015,11,22,05,13,0.70
2015,11,22,05,14,0.80
2015,11,22,05,15,0.90
2015,11,22,05,16,1.00
2015,11,22,05,17,1.20
2015,11,22,05,18,1.30
2015,11,22,05,19,1.40
2015,11,22,05,20,1.50
2015,11,22,05,21,1.50
2015,11,22,05,22,1.60
2015,11,22,05,23,1.60
2015,11,22,05,24,1.70
2015,11,22,05,25,1.70
2015,11,22,05,26,1.70
2015,11,22,05,27,1.70
2015,11,22,05,28,1.70
2015,11,22,05,29,1.70
2015,11,22,05,30,1.70
2015,11,22,05,31,1.70
2015,11,22,05,32,1.70
2015,11,22,05,33,1.70
2015,11,22,05,34,1.70
2015,11,22,05,35,1.70
2015,11,22,05,36,1.80
2015,11,22,05,37,1.80
2015,11,22,05,38,1.80
2015,11,22,05,39,1.80
2015,11,22,05,40,1.90
2015,11,22,05,41,1.90
2015,11,22,05,42,1.90
2015,11,22,05,43,1.90
2015,11,22,05,44,1.90
2015,11,22,05,45,1.90
2015,11,22,05,46,1.90
2015,11,22,05,47,1.80
2015,11,22,05,48,1.80
2015,11,22,05,49,1.80
2015,11,22,05,50,1.80
2015,11,22,05,51,1.80
2015,11,22,05,52,1.90
2015,11,22,05,53,1.90
2015,11,22,05,54,1.90
2015,11,22,05,55,1.90
2015,11,22,05,56,1.90
2015,11,22,05,57,1.90
2015,11,22,05,58,1.90
2015,11,22,05,59,1.90
2015,11,22,06,00,1.90
2015,11,22,06,01,1.90
2015,11,22,06,02,1.90
2015,11,22,06,03,1.90
2015,11,22,06,04,1.80
2015,11,22,06,05,1.80
2015,11,22,06,06,1.80
2015,11,22,06,07,1.80
2015,11,22,06,08,1.80
2015,11,22,06,09,1.80
2015,11,22,06,10,1.70
2015,11,22,06,11,1.70
2015,11,22,06,12,1.70
2015,11,22,06,13,1.70
2015,11,22,06,14,1.70
2015,11,22,06,15,1.70
2015,11,22,06,16,1.60
2015,11,22,06,17,1.60
2015,11,22,06,18,1.50
2015,11,22,06,19,1.40
2015,11,22,06,20,1.20
2015,11,22,06,21,1.10
2015,11,22,06,22,0.90
2015,11,22,06,23,0.80
2015,11,22,06,24,0.70
2015,11,22,06,25,0.50
2015,11,22,06,26,0.40
2015,11,22,06,27,0.30
2015,11,22,06,28,0.20
2015,11,22,06,29,0.10
2015,11,22,06,30,0.10
2015,11,22,06,31,0.00
2015,11,22,06,32,-0.10
2015,11,22,06,33,-0.10
2015,11,22,06,34,-0.20
2015,11,22,06,35,-0.30
2015,11,22,06,36,-0.30
2015,11,22,06,37,-0.30
2015,11,22,06,38,-0.40
2015,11,22,06,39,-0.40
2015,11,22,06,40,-0.40
2015,11,22,06,41,-0.50
2015,11,22,06,42,-0.50
2015,11,22,06,43,-0.60
2015,11,22,06,44,-0.60
2015,11,22,06,45,-0.60
2015,11,22,06,46,-0.70
2015,11,22,06,47,-0.70
2015,11,22,06,48,-0.80
2015,11,22,06,49,-0.80
2015,11,22,06,50,-0.80
2015,11,22,06,51,-0.90
2015,11,22,06,52,-0.90
2015,11,22,06,53,-0.90
2015,11,22,06,54,-0.90
2015,11,22,06,55,-0.90
2015,11,22,06,56,-1.00
2015,11,22,06,57,-1.00
2015,11,22,06,58,-1.00
2015,11,22,06,59,-1.00
2015,11,22,07,00,-1.00
2015,11,22,07,01,-1.00
2015,11,22,07,02,-1.00
2015,11,22,07,03,-1.00
2015,11,22,07,04,-0.90
2015,11,22,07,05,-0.90
2015,11,22,07,06,-0.90
2015,11,22,07,07,-0.90
2015,11,22,07,08,-0.90
2015,11,22,07,09,-0.90
2015,11,22,07,10,-0.90
2015,11,22,07,11,-0.90
2015,11,22,07,12,-0.90
2015,11,22,07,13,-0.90
2015,11,22,07,14,-0.90
2015,11,22,07,15,-0.90
2015,11,22,07,16,-0.90
2015,11,22,07,17,-0.90
2015,11,22,07,18,-0.90
2015,11,22,07,19,-0.90
2015,11,22,07,20,-0.90
2015,11,22,07,21,-0.90
2015,11,22,07,22,-0.90
2015,11,22,07,23,-0.90
2015,11,22,07,24,-0.90
2015,11,22,07,25,-0.90
2015,11,22,07,26,-1.00
2015,11,22,07,27,-1.00
2015,11,22,07,28,-1.00
2015,11,22,07,29,-1.00
2015,11,22,07,30,-1.00
2015,11,22,07,31,-1.00
2015,11,22,07,32,-1.00
2015,11,22,07,33,-0.90
2015,11,22,07,34,-0.90
2015,11,22,07,35,-0.90
2015,11,22,07,36,-0.80
2015,11,22,07,37,-0.70
2015,11,22,07,38,-0.60
2015,11,22,07,39,-0.40
2015,11,22,07,40,-0.30
2015,11,22,07,41,-0.20
2015,11,22,07,42,-0.10
2015,11,22,07,43,0.00
2015,11,22,07,44,0.20
2015,11,22,07,45,0.30
2015,11,22,07,46,0.40
2015,11,22,07,47,0.50
2015,11,22,07,48,0.60
2015,11,22,07,49,0.70
2015,11,22,07,50,0.70
2015,11,22,07,51,0.70
2015,11,22,07,52,0.70
2015,11,22,07,53,0.70
2015,11,22,07,54,0.70
2015,11,22,07,55,0.70
2015,11,22,07,56,0.70
2015,11,22,07,57,0.70
2015,11,22,07,58,0.70
2015,11,22,07,59,0.70
2015,11,22,09,58,4.90
2015,11,22,09,59,4.90
2015,11,22,10,00,5.00
2015,11,22,10,01,5.10
2015,11,22,10,02,5.10
2015,11,22,10,03,5.20
2015,11,22,10,04,5.30
2015,11,22,10,05,5.40
2015,11,22,10,06,5.40
2015,11,22,10,07,5.40
2015,11,22,10,08,5.50
2015,11,22,10,09,5.50
2015,11,22,10,10,5.60
2015,11,22,10,11,5.70
2015,11,22,10,12,5.70
2015,11,22,10,13,5.80
2015,11,22,10,14,5.90
2015,11,22,10,15,5.90
2015,11,22,10,16,6.00
2015,11,22,10,17,6.10
2015,11,22,10,18,6.20
2015,11,22,10,19,6.20
2015,11,22,10,20,6.30
2015,11,22,10,21,6.40
2015,11,22,10,22,6.50
2015,11,22,10,23,6.60
2015,11,22,10,24,6.70
2015,11,22,10,25,6.80
2015,11,22,10,26,6.80
2015,11,22,10,27,6.90
2015,11,22,10,28,7.00
2015,11,22,10,29,7.10
2015,11,22,10,30,7.10
2015,11,22,10,31,7.20
2015,11,22,10,32,7.30
2015,11,22,10,33,7.30
2015,11,22,10,34,7.30
2015,11,22,10,35,7.40
2015,11,22,10,36,7.40
2015,11,22,10,37,7.50
2015,11,22,10,38,7.60
2015,11,22,10,39,7.70
2015,11,22,10,40,7.70
2015,11,22,10,41,7.80
2015,11,22,10,42,7.80
2015,11,22,10,43,7.90
2015,11,22,10,44,7.90
2015,11,22,10,45,8.00
2015,11,22,10,46,8.10
2015,11,22,10,47,8.20
2015,11,22,10,48,8.20
2015,11,22,10,49,8.30
2015,11,22,10,50,8.30
2015,11,22,10,51,8.30
2015,11,22,10,52,8.30
2015,11,22,10,53,8.30
2015,11,22,10,54,8.30
2015,11,22,10,55,8.30
2015,11,22,10,56,8.40
2015,11,22,10,57,8.40
2015,11,22,10,58,8.40
2015,11,22,10,59,8.40
2015,11,22,11,00,8.50
2015,11,22,11,01,8.50
2015,11,22,11,02,8.50
2015,11,22,11,03,8.60
2015,11,22,11,04,8.70
2015,11,22,11,05,8.80
2015,11,22,11,06,8.90
2015,11,22,11,07,9.00
2015,11,22,11,08,9.10
2015,11,22,11,09,9.10
2015,11,22,11,10,9.10
2015,11,22,11,11,9.10
2015,11,22,11,12,9.20
2015,11,22,11,13,9.20
2015,11,22,11,14,9.20
2015,11,22,11,15,9.10
2015,11,22,11,16,9.00
2015,11,22,11,17,8.90
2015,11,22,11,18,8.90
2015,11,22,11,19,8.80
2015,11,22,11,20,8.90
2015,11,22,11,21,8.90
2015,11,22,11,22,8.90
2015,11,22,11,23,8.90
2015,11,22,11,24,8.90
2015,11,22,11,25,8.90
2015,11,22,11,26,8.90
2015,11,22,11,27,9.00
2015,11,22,11,28,9.00
2015,11,22,11,29,9.00
2015,11,22,11,30,8.90
2015,11,22,11,31,8.80
2015,11,22,11,32,8.70
2015,11,22,11,33,8.70
2015,11,22,11,34,8.70
2015,11,22,11,35,8.70
2015,11,22,11,36,8.70
2015,11,22,11,37,8.80
2015,11,22,11,38,8.80
2015,11,22,11,39,8.80
2015,11,22,11,40,8.80
2015,11,22,11,41,8.80
2015,11,22,11,42,8.80
2015,11,22,11,43,8.80
2015,11,22,11,44,8.80
2015,11,22,11,45,8.90
2015,11,22,11,46,8.90
2015,11,22,11,47,9.00
2015,11,22,11,48,9.00
2015,11,22,11,49,9.10
2015,11,22,11,50,9.10
2015,11,22,11,51,9.10
2015,11,22,11,52,9.10
2015,11,22,11,53,9.10
2015,11,22,11,54,9.10
2015,11,22,11,55,9.20
2015,11,22,11,56,9.20
2015,11,22,11,57,9.20
2015,11,22,11,58,9.20
2015,11,22,11,59,9.20
2015,11,22,12,00,9.20
2015,11,22,12,01,9.20
2015,11,22,12,02,9.20
2015,11,22,12,03,9.20
2015,11,22,12,04,9.10
2015,11,22,12,05,9.10
2015,11,22,12,06,9.10
2015,11,22,12,07,9.10
2015,11,22,12,08,9.10
2015,11,22,12,09,9.10
2015,11,22,12,10,9.10
2015,11,22,12,11,9.10
2015,11,22,12,12,9.10
2015,11,22,12,13,9.10
2015,11,22,12,14,9.10
2015,11,22,12,15,9.20
2015,11,22,12,16,9.20
2015,11,22,12,17,9.30
2015,11,22,12,18,9.40
2015,11,22,12,19,9.40
2015,11,22,12,20,9.40
2015,11,22,12,21,9.40
2015,11,22,12,22,9.50
2015,11,22,12,23,9.60
2015,11,22,12,24,9.60
2015,11,22,12,25,9.60
2015,11,22,12,26,9.50
2015,11,22,12,27,9.50
2015,11,22,12,28,9.50
2015,11,22,12,29,9.40
2015,11,22,12,30,9.40
2015,11,22,12,31,9.30
2015,11,22,12,32,9.30
2015,11,22,12,33,9.30
2015,11,22,12,34,9.40
2015,11,22,12,35,9.40
2015,11,22,12,36,9.40
2015,11,22,12,37,9.50
2015,11,22,12,38,9.50
2015,11,22,12,39,9.60
2015,11,22,12,40,9.60
2015,11,22,12,41,9.60
2015,11,22,12,42,9.50
2015,11,22,12,43,9.50
2015,11,22,12,44,9.60
2015,11,22,12,45,9.60
2015,11,22,12,46,9.70
2015,11,22,12,47,9.70
2015,11,22,12,48,9.70
2015,11,22,12,49,9.70
2015,11,22,12,50,9.60
2015,11,22,12,51,9.60
2015,11,22,12,52,9.60
2015,11,22,12,53,9.60
2015,11,22,12,54,9.70
2015,11,22,12,55,9.70
2015,11,22,12,56,9.60
2015,11,22,12,57,9.60
2015,11,22,12,58,9.50
2015,11,22,12,59,9.50
2015,11,22,13,00,9.40
2015,11,22,13,01,9.40
2015,11,22,13,02,9.40
2015,11,22,13,03,9.40
2015,11,22,13,04,9.40
2015,11,22,13,05,9.40
2015,11,22,13,06,9.40
2015,11,22,13,07,9.40
2015,11,22,13,08,9.40
2015,11,22,13,09,9.40
2015,11,22,13,10,9.50
2015,11,22,13,11,9.50
2015,11,22,13,12,9.50
2015,11,22,13,13,9.50
2015,11,22,13,14,9.50
2015,11,22,13,15,9.50
2015,11,22,13,16,9.50
2015,11,22,13,17,9.50
2015,11,22,13,18,9.60
2015,11,22,13,19,9.70
2015,11,22,13,20,9.80
2015,11,22,13,21,9.90
2015,11,22,13,22,9.90
2015,11,22,13,23,9.90
2015,11,22,13,24,9.90
2015,11,22,13,25,9.90
2015,11,22,13,26,10.00
2015,11,22,13,27,10.00
2015,11,22,13,28,9.90
2015,11,22,13,29,9.90
2015,11,22,13,30,9.80
2015,11,22,13,31,9.70
2015,11,22,13,32,9.80
2015,11,22,13,33,9.80
2015,11,22,13,34,9.90
2015,11,22,13,35,9.90
2015,11,22,13,36,10.00
2015,11,22,13,37,10.00
2015,11,22,13,38,10.10
2015,11,22,13,39,10.20
2015,11,22,13,40,10.30
2015,11,22,13,41,10.30
2015,11,22,13,42,10.40
2015,11,22,13,43,10.40
2015,11,22,13,44,10.50
2015,11,22,13,45,10.50
2015,11,22,13,46,10.50
2015,11,22,13,47,10.60
2015,11,22,13,48,10.60
2015,11,22,13,49,10.60
2015,11,22,13,50,10.70
2015,11,22,13,51,10.90
2015,11,22,13,52,11.00
2015,11,22,13,53,11.00
2015,11,22,13,54,11.00
2015,11,22,13,55,11.00
2015,11,22,13,56,11.10
2015,11,22,13,57,11.10
2015,11,22,13,58,11.10
2015,11,22,13,59,11.10
2015,11,22,14,00,11.10
2015,11,22,14,01,11.00
2015,11,22,14,02,11.00
2015,11,22,14,03,11.00
2015,11,22,14,04,10.90
2015,11,22,14,05,11.00
2015,11,22,14,06,11.00
2015,11,22,14,07,11.00
2015,11,22,14,08,11.10
2015,11,22,14,09,11.10
2015,11,22,14,10,11.10
2015,11,22,14,11,11.10
2015,11,22,14,12,11.00
2015,11,22,14,13,10.90
2015,11,22,14,14,10.90
2015,11,22,14,15,10.80
2015,11,22,14,16,10.80
2015,11,22,14,17,10.80
2015,11,22,14,18,10.80
2015,11,22,14,19,10.90
2015,11,22,14,20,10.90
2015,11,22,14,21,10.90
2015,11,22,14,22,10.90
2015,11,22,14,23,10.80
2015,11,22,14,24,10.70
2015,11,22,14,25,10.60
2015,11,22,14,26,10.50
2015,11,22,14,27,10.40
2015,11,22,14,28,10.30
2015,11,22,14,29,10.30
2015,11,22,14,30,10.20
2015,11,22,14,31,10.20
2015,11,22,14,32,10.30
2015,11,22,14,33,10.20
2015,11,22,14,34,10.20
2015,11,22,14,35,10.30
2015,11,22,14,36,10.20
2015,11,22,14,37,10.20
2015,11,22,14,38,10.10
2015,11,22,14,39,10.10
2015,11,22,14,40,10.10
2015,11,22,14,41,10.10
2015,11,22,14,42,10.10
2015,11,22,14,43,10.10
2015,11,22,14,44,10.10
2015,11,22,14,45,10.10
2015,11,22,14,46,10.00
2015,11,22,14,47,10.00
2015,11,22,14,48,9.80
2015,11,22,14,49,9.70
2015,11,22,14,50,9.60
2015,11,22,14,51,9.60
2015,11,22,14,52,9.60
2015,11,22,14,53,9.50
2015,11,22,14,54,9.50
2015,11,22,14,55,9.40
2015,11,22,14,56,9.40
2015,11,22,14,57,9.40
2015,11,22,14,58,9.40
2015,11,22,14,59,9.30
2015,11,22,15,00,9.30
2015,11,22,15,01,9.30
2015,11,22,15,02,9.30
2015,11,22,15,03,9.30
2015,11,22,15,04,9.30
2015,11,22,15,05,9.30
2015,11,22,15,06,9.30
2015,11,22,15,07,9.30
2015,11,22,15,08,9.20
2015,11,22,15,09,9.10
2015,11,22,15,10,9.10
2015,11,22,15,11,9.00
2015,11,22,15,12,9.00
2015,11,22,15,13,8.90
2015,11,22,15,14,8.90
2015,11,22,15,15,8.90
2015,11,22,15,16,8.80
2015,11,22,15,17,8.80
2015,11,22,15,18,8.80
2015,11,22,15,19,8.80
2015,11,22,15,20,8.80
2015,11,22,15,21,8.90
2015,11,22,15,22,8.90
2015,11,22,15,23,8.90
2015,11,22,15,24,8.90
2015,11,22,15,25,8.90
2015,11,22,15,26,8.90
2015,11,22,15,27,8.90
2015,11,22,15,28,8.80
2015,11,22,15,29,8.80
2015,11,22,15,30,8.70
2015,11,22,15,31,8.70
2015,11,22,15,32,8.60
2015,11,22,15,33,8.60
2015,11,22,15,34,8.50
2015,11,22,15,35,8.40
2015,11,22,15,36,8.30
2015,11,22,15,37,8.30
2015,11,22,15,38,8.30
2015,11,22,15,39,8.30
2015,11,22,15,40,8.20
2015,11,22,15,41,8.10
2015,11,22,15,42,8.10
2015,11,22,15,43,8.10
2015,11,22,15,44,8.00
2015,11,22,15,45,8.10
2015,11,22,15,46,8.10
2015,11,22,15,47,8.10
2015,11,22,15,48,8.10
2015,11,22,15,49,8.10
2015,11,22,15,50,8.10
2015,11,22,15,51,8.10
2015,11,22,15,52,8.20
2015,11,22,15,53,8.10
2015,11,22,15,54,8.10
2015,11,22,15,55,8.10
2015,11,22,15,56,8.10
2015,11,22,15,57,8.10
2015,11,22,15,58,8.10
2015,11,22,15,59,8.10
2015,11,22,16,00,8.10
2015,11,22,16,01,8.10
2015,11,22,16,02,8.00
2015,11,22,16,03,8.00
2015,11,22,16,04,7.90
2015,11,22,16,05,7.90
2015,11,22,16,06,7.90
2015,11,22,16,07,7.90
2015,11,22,16,08,7.80
2015,11,22,16,09,7.80
2015,11,22,16,10,7.80
2015,11,22,16,11,7.80
2015,11,22,16,12,7.80
2015,11,22,16,13,7.70
2015,11,22,16,14,7.70
2015,11,22,16,15,7.70
2015,11,22,16,16,7.70
2015,11,22,16,17,7.70
2015,11,22,16,18,7.70
2015,11,22,16,19,7.70
2015,11,22,16,20,7.60
2015,11,22,16,21,7.60
2015,11,22,16,22,7.60
2015,11,22,16,23,7.60
2015,11,22,16,24,7.60
2015,11,22,16,25,7.60
2015,11,22,16,26,7.50
2015,11,22,16,27,7.50
2015,11,22,16,28,7.40
2015,11,22,16,29,7.40
2015,11,22,16,30,7.40
2015,11,22,16,31,7.30
2015,11,22,16,32,7.30
2015,11,22,16,33,7.20
2015,11,22,16,34,7.20
2015,11,22,16,35,7.20
2015,11,22,16,36,7.10
2015,11,22,16,37,7.10
2015,11,22,16,38,7.10
2015,11,22,16,39,7.10
2015,11,22,16,40,7.10
2015,11,22,16,41,7.00
2015,11,22,16,42,7.00
2015,11,22,16,43,6.90
2015,11,22,16,44,6.90
2015,11,22,16,45,6.80
2015,11,22,16,46,6.70
2015,11,22,16,47,6.70
2015,11,22,16,48,6.60
2015,11,22,16,49,6.60
2015,11,22,16,50,6.60
2015,11,22,16,51,6.60
2015,11,22,16,52,6.50
2015,11,22,16,53,6.50
2015,11,22,16,54,6.50
2015,11,22,16,55,6.40
2015,11,22,16,56,6.40
2015,11,22,16,57,6.40
2015,11,22,16,58,6.40
2015,11,22,16,59,6.40
2015,11,22,17,00,6.30
2015,11,22,17,01,6.30
2015,11,22,17,02,6.30
2015,11,22,17,03,6.30
2015,11,22,17,04,6.30
2015,11,22,17,05,6.30
2015,11,22,17,06,6.30
2015,11,22,17,07,6.30
2015,11,22,17,08,6.30
2015,11,22,17,09,6.20
2015,11,22,17,10,6.20
2015,11,22,17,11,6.20
2015,11,22,17,12,6.20
2015,11,22,17,13,6.20
2015,11,22,17,14,6.20
2015,11,22,17,15,6.10
2015,11,22,17,16,6.10
2015,11,22,17,17,6.10
2015,11,22,17,18,6.10
2015,11,22,17,19,6.10
2015,11,22,17,20,6.10
2015,11,22,17,21,6.10
2015,11,22,17,22,6.10
2015,11,22,17,23,6.00
2015,11,22,17,24,6.00
2015,11,22,17,25,6.00
2015,11,22,17,26,6.00
2015,11,22,17,27,6.00
2015,11,22,17,28,5.90
2015,11,22,17,29,5.90
2015,11,22,17,30,5.90
2015,11,22,17,31,5.90
2015,11,22,17,32,5.90
2015,11,22,17,33,5.90
2015,11,22,17,34,5.90
2015,11,22,17,35,5.90
2015,11,22,17,36,5.90
2015,11,22,17,37,5.80
2015,11,22,17,38,5.80
2015,11,22,17,39,5.80
2015,11,22,17,40,5.80
2015,11,22,17,41,5.80
2015,11,22,17,42,5.80
2015,11,22,17,43,5.80
2015,11,22,17,44,5.80
2015,11,22,17,45,5.80
2015,11,22,17,46,5.80
2015,11,22,17,47,5.80
2015,11,22,17,48,5.80
2015,11,22,17,49,5.70
2015,11,22,17,50,5.70
2015,11,22,17,51,5.70
2015,11,22,17,52,5.70
2015,11,22,17,53,5.70
2015,11,22,17,54,5.70
2015,11,22,17,55,5.70
2015,11,22,17,56,5.70
2015,11,22,17,57,5.70
2015,11,22,17,58,5.70
2015,11,22,17,59,5.70
2015,11,22,18,00,5.70
2015,11,22,18,01,5.70
2015,11,22,18,02,5.60
2015,11,22,18,03,5.60
2015,11,22,18,04,5.60
2015,11,22,18,05,5.60
2015,11,22,18,06,5.60
2015,11,22,18,07,5.60
2015,11,22,18,08,5.60
2015,11,22,18,09,5.60
2015,11,22,18,10,5.60
2015,11,22,18,11,5.60
2015,11,22,18,12,5.60
2015,11,22,18,13,5.50
2015,11,22,18,14,5.50
2015,11,22,18,15,5.50
2015,11,22,18,16,5.50
2015,11,22,18,17,5.50
2015,11,22,18,18,5.50
2015,11,22,18,19,5.40
2015,11,22,18,20,5.40
2015,11,22,18,21,5.40
2015,11,22,18,22,5.40
2015,11,22,18,23,5.40
2015,11,22,18,24,5.40
2015,11,22,18,25,5.40
2015,11,22,18,26,5.40
2015,11,22,18,27,5.40
2015,11,22,18,28,5.40
2015,11,22,18,29,5.40
2015,11,22,18,30,5.40
2015,11,22,18,31,5.40
2015,11,22,18,32,5.40
2015,11,22,18,33,5.40
2015,11,22,18,34,5.40
2015,11,22,18,35,5.30
2015,11,22,18,36,5.30
2015,11,22,18,37,5.30
2015,11,22,18,38,5.30
2015,11,22,18,39,5.30
2015,11,22,18,40,5.30
2015,11,22,18,41,5.30
2015,11,22,18,42,5.30
2015,11,22,18,43,5.30
2015,11,22,18,44,5.30
2015,11,22,18,45,5.30
2015,11,22,18,46,5.20
2015,11,22,18,47,5.20
2015,11,22,18,48,5.20
2015,11,22,18,49,5.20
2015,11,22,18,50,5.20
2015,11,22,18,51,5.20
2015,11,22,18,52,5.20
2015,11,22,18,53,5.20
2015,11,22,18,54,5.20
2015,11,22,18,55,5.20
2015,11,22,18,56,5.20
2015,11,22,18,57,5.20
2015,11,22,18,58,5.20
2015,11,22,18,59,5.10
2015,11,22,19,00,5.10
2015,11,22,19,01,5.10
2015,11,22,19,02,5.10
2015,11,22,19,03,5.10
2015,11,22,19,04,5.10
2015,11,22,19,05,5.10
2015,11,22,19,06,5.10
2015,11,22,19,07,5.10
2015,11,22,19,08,5.10
2015,11,22,19,09,5.10
2015,11,22,19,10,5.10
2015,11,22,19,11,5.00
2015,11,22,19,12,5.00
2015,11,22,19,13,5.00
2015,11,22,19,14,5.00
2015,11,22,19,15,5.00
2015,11,22,19,16,5.00
2015,11,22,19,17,5.00
2015,11,22,19,18,5.00
2015,11,22,19,19,5.00
2015,11,22,19,20,4.90
2015,11,22,19,21,4.90
2015,11,22,19,22,4.90
2015,11,22,19,23,4.90
2015,11,22,19,24,4.90
2015,11,22,19,25,4.90
2015,11,22,19,26,4.90
2015,11,22,19,27,4.90
2015,11,22,19,28,4.90
2015,11,22,19,29,4.90
2015,11,22,19,30,4.90
2015,11,22,19,31,4.90
2015,11,22,19,32,4.90
2015,11,22,19,33,4.90
2015,11,22,19,34,4.90
2015,11,22,19,35,4.80
2015,11,22,19,36,4.80
2015,11,22,19,37,4.80
2015,11,22,19,38,4.80
2015,11,22,19,39,4.80
2015,11,22,19,40,4.80
2015,11,22,19,41,4.80
2015,11,22,19,42,4.80
2015,11,22,19,43,4.80
2015,11,22,19,44,4.80
2015,11,22,19,45,4.80
2015,11,22,19,46,4.80
2015,11,22,19,47,4.80
2015,11,22,19,48,4.80
2015,11,22,19,49,4.80
2015,11,22,19,50,4.80
2015,11,22,19,51,4.80
2015,11,22,19,52,4.80
2015,11,22,19,53,4.80
2015,11,22,19,54,4.70
2015,11,22,19,55,4.70
2015,11,22,19,56,4.70
2015,11,22,19,57,4.70
2015,11,22,19,58,4.70
2015,11,22,19,59,4.70
2015,11,22,20,00,4.70
2015,11,22,20,01,4.70
2015,11,22,20,02,4.70
2015,11,22,20,03,4.70
2015,11,22,20,04,4.70
2015,11,22,20,05,4.70
2015,11,22,20,06,4.70
2015,11,22,20,07,4.70
2015,11,22,20,08,4.70
2015,11,22,20,09,4.70
2015,11,22,20,10,4.70
2015,11,22,20,11,4.70
2015,11,22,20,12,4.70
2015,11,22,20,13,4.70
2015,11,22,20,14,4.70
2015,11,22,20,15,4.70
2015,11,22,20,16,4.70
2015,11,22,20,17,4.70
2015,11,22,20,18,4.70
2015,11,22,20,19,4.70
2015,11,22,20,20,4.70
2015,11,22,20,21,4.70
2015,11,22,20,22,4.70
2015,11,22,20,23,4.70
2015,11,22,20,24,4.70
2015,11,22,20,25,4.70
2015,11,22,20,26,4.70
2015,11,22,20,27,4.70
2015,11,22,20,28,4.70
2015,11,22,20,29,4.70
2015,11,22,20,30,4.70
2015,11,22,20,31,4.70
2015,11,22,20,32,4.70
2015,11,22,20,33,4.70
2015,11,22,20,34,4.70
2015,11,22,20,35,4.70
2015,11,22,20,36,4.70
2015,11,22,20,37,4.70
2015,11,22,20,38,4.60
2015,11,22,20,39,4.60
2015,11,22,20,40,4.60
2015,11,22,20,41,4.60
2015,11,22,20,42,4.60
2015,11,22,20,43,4.60
2015,11,22,20,44,4.60
2015,11,22,20,45,4.60
2015,11,22,20,46,4.50
2015,11,22,20,47,4.50
2015,11,22,20,48,4.50
2015,11,22,20,49,4.50
2015,11,22,20,50,4.50
2015,11,22,20,51,4.50
2015,11,22,20,52,4.50
2015,11,22,20,53,4.50
2015,11,22,20,54,4.40
2015,11,22,20,55,4.40
2015,11,22,20,56,4.40
2015,11,22,20,57,4.40
2015,11,22,20,58,4.40
2015,11,22,20,59,4.40
2015,11,22,21,00,4.40
2015,11,22,21,01,4.40
2015,11,22,21,02,4.40
2015,11,22,21,03,4.40
2015,11,22,21,04,4.40
2015,11,22,21,05,4.40
2015,11,22,21,06,4.40
2015,11,22,21,07,4.40
2015,11,22,21,08,4.40
2015,11,22,21,09,4.40
2015,11,22,21,10,4.40
2015,11,22,21,11,4.40
2015,11,22,21,12,4.40
2015,11,22,21,13,4.40
2015,11,22,21,14,4.40
2015,11,22,21,15,4.30
2015,11,22,21,16,4.30
2015,11,22,21,17,4.30
2015,11,22,21,18,4.30
2015,11,22,21,19,4.30
2015,11,22,21,20,4.30
2015,11,22,21,21,4.30
2015,11,22,21,22,4.30
2015,11,22,21,23,4.30
2015,11,22,21,24,4.30
2015,11,22,21,25,4.30
2015,11,22,21,26,4.30
2015,11,22,21,27,4.30
2015,11,22,21,28,4.30
2015,11,22,21,29,4.30
2015,11,22,21,30,4.30
2015,11,22,21,31,4.30
2015,11,22,21,32,4.30
2015,11,22,21,33,4.30
2015,11,22,21,34,4.30
2015,11,22,21,35,4.30
2015,11,22,21,36,4.30
2015,11,22,21,37,4.20
2015,11,22,21,38,4.20
2015,11,22,21,39,4.20
2015,11,22,21,40,4.20
2015,11,22,21,41,4.20
2015,11,22,21,42,4.20
2015,11,22,21,43,4.20
2015,11,22,21,44,4.20
2015,11,22,21,45,4.20
2015,11,22,21,46,4.20
2015,11,22,21,47,4.20
2015,11,22,21,48,4.20
2015,11,22,21,49,4.20
2015,11,22,21,50,4.20
2015,11,22,21,51,4.20
2015,11,22,21,52,4.20
2015,11,22,21,53,4.20
2015,11,22,21,54,4.20
2015,11,22,21,55,4.20
2015,11,22,21,56,4.20
2015,11,22,21,57,4.20
2015,11,22,21,58,4.20
2015,11,22,21,59,4.20
2015,11,22,22,00,4.20
2015,11,22,22,01,4.20
2015,11,22,22,02,4.20
2015,11,22,22,03,4.20
2015,11,22,22,04,4.20
2015,11,22,22,05,4.20
2015,11,22,22,06,4.20
2015,11,22,22,07,4.10
2015,11,22,22,08,4.10
2015,11,22,22,09,4.10
2015,11,22,22,10,4.10
2015,11,22,22,11,4.10
2015,11,22,22,12,4.10
2015,11,22,22,13,4.10
2015,11,22,22,14,4.10
2015,11,22,22,15,4.10
2015,11,22,22,16,4.10
2015,11,22,22,17,4.10
2015,11,22,22,18,4.10
2015,11,22,22,19,4.10
2015,11,22,22,20,4.10
2015,11,22,22,21,4.10
2015,11,22,22,22,4.10
2015,11,22,22,23,4.10
2015,11,22,22,24,4.10
2015,11,22,22,25,4.10
2015,11,22,22,26,4.10
2015,11,22,22,27,4.10
2015,11,22,22,28,4.10
2015,11,22,22,29,4.00
2015,11,22,22,30,4.00
2015,11,22,22,31,4.00
2015,11,22,22,32,4.00
2015,11,22,22,33,4.00
2015,11,22,22,34,4.00
2015,11,22,22,35,4.00
2015,11,22,22,36,4.00
2015,11,22,22,37,4.00
2015,11,22,22,38,4.00
2015,11,22,22,39,4.00
2015,11,22,22,40,4.10
2015,11,22,22,41,4.10
2015,11,22,22,42,4.10
2015,11,22,22,43,4.10
2015,11,22,22,44,4.10
2015,11,22,22,45,4.10
2015,11,22,22,46,4.10